Regional Weather Roundup
Issued by NWS

Home | Current Version | Previous Version | Text Only | Print | Product List | Glossary On
Versions: 1 2 3 4 5 6 7 8 9 10 11 12 13 14 15 16 17 18 19 20 21 22 23 24 25 26 27 28 29 30 31 32 33 34 35 36 37 38 39 40 41 42 43 44 45 46 47 48 49 50
000
ASUS43 KTOP 270008
RWRKS

WEATHER ROUNDUP FOR KANSAS
NATIONAL WEATHER SERVICE GOODLAND KS
700 PM CDT SUN APR 26 2015

NOTE:  "FAIR" INDICATES FEW OR NO CLOUDS BELOW 12,000 FEET WITH NO
SIGNIFICANT WEATHER AND/OR OBSTRUCTIONS TO VISIBILITY.

KSZ001>006-013>018-027>032-041>047-270100-
NORTHWEST KANSAS

CITY           SKY/WX    TMP DP  RH WIND       PRES   REMARKS
GOODLAND       CLOUDY    45  44  97 NE16      29.94R
6HR MIN TEMP:  43; 6HR MAX TEMP:  45; 6HR PCP: TRACE;

HAYS           CLOUDY    48  37  66 E18       29.93R
HILL CITY      CLOUDY    50  43  77 E16       29.94S
6HR MIN TEMP:  48; 6HR MAX TEMP:  51;

RUSSELL        CLOUDY    50  44  80 NE18      29.92R
6HR MIN TEMP:  48; 6HR MAX TEMP:  52;

$$

KSZ061>065-074>080-084>089-270100-
SOUTHWEST KANSAS

CITY           SKY/WX    TMP DP  RH WIND       PRES   REMARKS
DODGE CITY     CLOUDY    48  45  89 NE20G29   29.86F FOG
6HR MIN TEMP:  48; 6HR MAX TEMP:  52;

ELKHART          N/A     48  43  83 NE13        N/A
GARDEN CITY    CLOUDY    47  46  97 E21G30    29.87R FOG
6HR MIN TEMP:  46; 6HR MAX TEMP:  48;

GREAT BEND     CLOUDY    50  43  76 E15       29.91R
LIBERAL        CLOUDY    52  46  82 SE12      29.92R
$$

KSZ066>073-081>083-090>101-270100-
SOUTHEAST KANSAS

CITY           SKY/WX    TMP DP  RH WIND       PRES   REMARKS
CHANUTE        SUNNY     55  45  68 E15       29.90R
6HR MIN TEMP:  54; 6HR MAX TEMP:  57;

COFFEYVILLE    PTSUNNY   56  47  71 NE17G23   29.86R
6HR MIN TEMP:  56; 6HR MAX TEMP:  59;

HUTCHINSON     CLOUDY    53  43  68 NE15G22   29.89R
6HR MIN TEMP:  52; 6HR MAX TEMP:  55;

MEDICINE LODGE   N/A     54  48  80 NE16G25   29.82S
NEWTON         CLOUDY    52  43  71 E15       29.90F
PARSONS        PTSUNNY   55  46  71 VRB7      29.88S
6HR MIN TEMP:  55; 6HR MAX TEMP:  58;

WICHITA INTL   CLOUDY    54  45  71 NE17G24   29.86S
6HR MIN TEMP:  54; 6HR MAX TEMP:  60;

WICHITA JABRA  CLOUDY    52  44  74 E22G28    29.87F
6HR MIN TEMP:  52; 6HR MAX TEMP:  57;

WICHITA MCCONL CLOUDY    53  45  74 E16G22    29.86S
WINFIELD       CLOUDY    56  47  71 NE13G24   29.84S
6HR MIN TEMP:  56; 6HR MAX TEMP:  62;

$$

KSZ007>012-019>026-033>040-048>060-102>105-270100-
NORTHEAST KANSAS

CITY           SKY/WX    TMP DP  RH WIND       PRES   REMARKS
CONCORDIA      MOSUNNY   55  44  66 E12       29.94S
6HR MIN TEMP:  49; 6HR MAX TEMP:  55;

EMPORIA        PTSUNNY   57  45  64 E14       29.91R
6HR MIN TEMP:  50; 6HR MAX TEMP:  58;

LAWRENCE       SUNNY     61  41  47 E10G20    29.93R
6HR MIN TEMP:  54; 6HR MAX TEMP:  62;

MANHATTAN      SUNNY     60  45  57 E16       29.91F
6HR MIN TEMP:  53; 6HR MAX TEMP:  60;

MARYSVILLE     SUNNY     59  41  51 E13       29.94F
OLATHE IND     SUNNY     61  38  42 E12G21    29.93R
6HR MIN TEMP:  52; 6HR MAX TEMP:  62;

OLATHE EXE     SUNNY     60  37  42 E14       29.91S
6HR MIN TEMP:  52; 6HR MAX TEMP:  62;

SALINA         PTSUNNY   56  43  61 E13       29.93R
6HR MIN TEMP:  51; 6HR MAX TEMP:  56;

TOPEKA BILLARD SUNNY     61  42  49 NE15      29.93R
6HR MIN TEMP:  53; 6HR MAX TEMP:  62;

TOPEKA FORBES  SUNNY     61  43  51 E14       29.92R
6HR MIN TEMP:  53; 6HR MAX TEMP:  62;

$$



USA.gov is the U.S. government's official web portal to all federal, state and local government web resources and services.